Theta_e
317 319 318 316 314 313 315 318 317 319 319 319 314 311 311 313 318 317 318 318 317 317 316 316 316 316 316 315 318 315 317 318 318 320 318 319 324 323 322 320 321 319 320 320 317 319 318 320 323 323 325 325 329 334
317 318 315 314 313 316 319 319 318 319 319 319 313 310 310 314 318 316 318 318 318 318 318 318 317 317 317 317 316 317 317 318 318 320 319 321 323 321 320 325 316 322 319 321 319 319 319 319 322 324 325 326 330 332
318 314 313 314 315 315 316 319 319 319 319 319 312 310 310 316 318 314 318 318 318 318 318 318 316 315 316 317 317 318 318 318 316 316 318 319 321 319 325 323 320 318 315 324 322 322 321 320 321 323 325 324 325 330
314 313 315 315 316 315 315 317 319 319 319 320 310 309 309 316 317 313 319 318 319 318 319 319 316 314 313 315 317 317 317 318 316 315 316 317 319 314 318 317 321 319 317 321 321 319 318 319 320 321 324 327 328 326
312 315 316 316 317 316 317 318 318 318 319 320 309 309 309 312 316 315 320 319 319 319 319 318 316 315 314 314 314 317 317 317 316 318 319 320 316 317 315 315 320 317 321 324 325 319 319 319 319 320 321 323 326 327
315 316 317 317 317 316 316 316 316 317 319 318 309 309 309 310 313 314 316 321 321 319 318 320 317 315 315 314 313 314 316 317 317 318 317 314 312 314 319 322 317 316 315 316 319 316 316 315 318 320 320 320 320 323
316 317 317 317 316 315 315 315 314 317 320 311 308 308 309 310 311 314 316 316 321 320 319 319 319 317 316 317 316 314 312 313 315 314 315 315 313 313 316 321 316 316 316 316 316 316 317 315 316 317 319 320 321 320
317 318 317 317 316 314 314 314 316 319 315 308 309 309 310 311 313 318 319 319 320 322 318 320 320 318 317 318 318 315 315 313 312 312 311 313 310 310 318 316 313 315 316 316 315 315 316 315 315 315 315 315 316 319
317 318 317 317 317 316 315 315 318 312 308 309 310 312 314 317 318 319 316 318 321 321 321 319 322 322 317 316 316 316 315 316 311 315 314 313 313 314 315 313 312 315 316 317 314 314 314 314 313 313 313 314 315 314
317 317 318 318 317 309 308 308 308 309 311 316 319 321 321 320 315 315 317 317 319 318 319 322 317 320 317 315 315 316 313 315 318 314 312 315 318 314 311 308 308 313 314 315 316 314 312 313 313 313 314 314 314 314
316 317 318 319 312 308 308 309 311 313 318 320 321 318 318 316 317 318 318 318 317 320 319 319 318 319 316 318 318 313 316 313 316 314 317 317 317 315 312 310 309 313 314 312 310 311 310 311 313 313 312 313 313 313
314 316 317 316 308 308 311 313 315 318 320 320 319 316 316 318 320 320 320 318 320 321 317 319 317 316 315 315 317 314 316 313 315 312 317 319 317 312 312 310 310 312 313 311 312 311 311 310 311 310 309 310 311 311
312 315 316 309 307 310 314 314 317 319 319 318 320 318 318 317 317 321 321 322 322 318 315 315 317 316 313 313 314 315 317 316 312 317 320 318 316 312 312 309 309 310 311 312 313 312 311 312 311 312 312 311 310 311
312 313 313 311 307 308 313 314 313 318 319 319 318 316 318 320 319 320 320 321 320 317 316 317 316 317 314 315 314 316 315 313 316 317 317 317 314 313 313 312 311 310 311 312 313 314 313 312 313 313 312 313 311 310
313 311 312 308 308 307 308 312 313 312 317 320 321 318 320 318 317 318 319 319 320 318 316 316 316 317 316 317 316 316 317 318 318 318 316 314 315 316 316 312 313 313 312 312 312 314 314 313 311 308 308 309 309 308
311 311 312 311 309 311 310 309 308 309 313 315 319 322 320 320 321 319 320 321 321 319 316 317 318 320 320 319 319 319 318 320 320 318 315 315 317 318 318 316 316 314 313 313 313 312 311 308 307 305 304 304 304 305
312 313 314 312 312 313 312 312 310 309 310 315 316 317 318 318 320 321 320 319 321 317 320 319 321 321 317 320 320 319 320 320 317 315 314 315 317 318 318 317 313 313 312 312 311 309 307 305 305 304 304 304 304 305
311 314 311 309 310 310 310 310 312 312 315 316 316 313 314 315 316 317 319 320 318 317 317 320 318 319 321 321 320 320 317 316 317 318 318 317 318 318 315 312 312 312 312 312 309 307 306 305 304 304 304 304 304 304
309 313 311 311 310 311 312 312 314 315 316 318 317 316 316 316 314 313 315 317 319 318 317 318 320 321 321 319 320 318 317 317 318 320 318 318 318 318 314 313 314 313 310 308 306 306 305 303 304 305 305 304 305 305
311 313 310 310 310 311 311 315 315 316 317 317 316 315 315 315 314 315 315 316 317 319 317 318 320 320 318 317 317 318 318 319 321 321 320 319 318 316 314 313 311 311 309 308 306 306 305 304 304 305 304 305 306 306
308 310 310 311 313 311 313 314 317 318 319 319 320 320 322 321 320 320 321 321 319 320 320 318 319 319 317 318 320 321 320 320 320 321 320 319 317 313 314 312 312 312 309 308 307 307 306 305 304 305 304 304 305 304
311 313 314 314 313 312 313 313 314 315 316 319 319 320 321 322 323 323 322 322 324 323 323 322 322 320 321 321 320 319 320 321 321 320 320 318 316 314 314 313 313 312 310 309 308 308 307 305 304 304 304 304 304 305
312 313 314 312 313 313 314 315 317 318 319 318 320 323 323 323 322 321 325 323 323 322 322 322 322 321 320 321 321 321 322 321 321 320 319 315 314 314 314 313 312 311 310 309 308 308 307 306 304 304 304 304 304 303
313 314 314 313 313 311 314 316 317 318 319 321 322 324 323 324 323 324 326 324 321 321 320 320 320 321 321 321 321 319 317 319 317 316 316 314 314 314 313 313 313 312 310 310 309 309 308 307 305 304 304 304 304 304
311 312 313 311 314 316 318 319 318 320 321 322 323 324 324 320 324 325 325 322 321 320 321 321 321 321 321 319 315 314 314 314 314 314 314 314 314 313 313 313 314 313 313 312 311 309 308 307 306 304 304 304 305 304
311 313 312 314 314 315 317 319 320 320 321 322 322 322 322 324 324 325 323 321 320 319 318 317 318 318 319 319 315 314 314 314 314 314 314 314 314 314 314 314 313 311 309 309 311 311 309 308 307 305 304 304 304 304
312 314 315 315 315 315 316 317 318 318 320 321 322 323 322 323 323 323 319 319 318 316 314 312 312 316 319 319 315 314 314 314 314 314 313 313 313 313 314 312 311 311 311 311 311 309 307 307 306 305 305 304 304 303
314 314 316 315 316 316 317 318 319 320 320 319 321 323 323 322 322 319 320 317 314 312 311 314 314 317 319 315 314 313 313 313 312 311 312 312 311 311 312 312 312 311 309 308 307 306 306 305 305 305 305 305 305 303
314 315 314 315 316 317 318 319 320 320 320 321 323 323 322 320 319 319 316 314 312 311 312 316 318 317 315 314 313 310 310 310 309 308 309 308 308 308 308 310 311 310 308 307 306 306 305 304 303 304 304 304 304 304
314 313 316 316 317 319 319 318 319 317 320 321 320 321 320 321 321 319 315 314 313 312 311 313 314 314 313 312 310 309 308 308 308 307 308 307 307 307 307 307 306 306 306 306 306 306 305 305 304 304 304 304 305 304
314 314 315 315 316 317 317 317 316 316 320 320 319 318 318 318 319 319 317 315 315 315 314 312 310 310 310 309 308 308 308 308 308 307 307 307 307 306 306 306 305 305 306 306 306 306 306 305 305 305 305 305 305 305
313 315 315 317 317 316 316 317 317 320 319 318 319 319 319 319 318 316 317 317 316 316 316 315 314 313 311 309 308 308 308 307 307 307 307 307 307 307 306 306 305 304 305 305 306 306 306 305 305 304 304 304 304 303
314 315 315 316 317 319 319 320 320 320 320 320 319 319 319 318 320 318 316 317 317 317 316 316 314 311 310 310 310 310 311 309 308 308 308 307 307 307 307 306 306 305 305 304 305 305 304 304 304 305 305 305 305 305
Wind_Speed
28 29 29 29 29 28 24 20 16 13 9 7 6 4 3 3 1 3 5 6 9 10 12 13 12 7 5 3 1 0 1 2 1 1 1 2 2 1 1 1 1 3 4 3 2 2 5 7 2 3 4 5 6 6
28 29 30 30 29 25 21 16 13 11 9 9 8 6 5 4 4 3 7 16 12 7 15 16 13 10 7 4 1 0 1 1 2 3 1 2 2 2 1 2 0 2 1 1 3 1 2 4 2 6 7 7 2 10
28 28 29 29 27 24 21 15 12 9 9 11 10 8 7 6 6 4 7 9 23 17 12 7 8 7 4 3 2 2 1 3 3 3 4 2 2 2 2 2 2 2 1 1 3 3 3 3 2 5 7 4 5 10
26 27 26 26 26 25 22 15 12 10 11 13 12 10 9 9 7 5 9 18 9 6 4 3 5 6 8 4 3 2 2 5 7 4 2 1 1 3 1 0 2 1 4 3 2 3 3 3 3 7 9 9 7 10
25 25 26 26 24 17 14 9 10 11 12 15 13 12 11 11 9 7 7 13 9 3 3 6 7 6 7 7 3 0 3 5 3 2 1 1 2 2 2 1 3 7 4 4 2 2 0 2 1 3 6 8 7 7
22 23 26 23 17 13 9 8 9 11 14 15 13 12 11 10 10 8 3 5 8 7 3 3 4 6 5 6 7 4 3 3 3 3 3 2 2 1 2 2 2 6 8 6 3 8 6 5 3 3 2 3 5 5
21 23 21 17 13 11 8 7 11 12 17 15 13 12 12 10 11 5 2 4 9 8 4 3 3 5 7 2 2 4 6 4 3 3 2 2 2 1 2 3 2 8 6 6 7 8 5 5 4 4 4 4 4 5
19 20 13 6 10 8 3 9 12 15 16 14 12 12 11 10 11 5 3 4 9 5 3 2 2 2 7 2 2 1 2 2 4 2 2 1 2 1 4 7 4 9 9 8 8 4 5 6 4 3 3 2 7 9
17 11 5 6 8 7 8 9 14 16 14 14 13 11 9 8 7 6 4 8 8 5 3 3 3 2 6 3 2 2 1 1 1 1 2 2 1 4 6 6 10 15 10 10 10 6 3 2 2 2 2 3 3 4
13 4 2 5 6 7 7 9 11 13 15 16 17 4 4 7 8 9 5 5 4 4 4 3 5 3 5 3 2 2 2 1 1 1 2 2 3 14 12 7 6 14 12 11 11 5 5 4 3 2 1 2 2 4
11 6 2 2 4 3 4 8 11 14 17 11 4 2 9 13 7 3 2 2 3 3 5 4 8 4 6 3 3 1 2 1 1 2 2 2 3 5 7 14 10 13 15 12 9 6 4 4 4 3 1 2 3 3
11 8 6 4 4 5 6 8 12 13 7 6 6 9 10 4 3 3 2 1 4 3 5 5 6 4 5 4 3 2 1 2 1 4 2 3 4 8 9 13 16 16 18 17 12 8 4 5 4 3 1 0 1 2
13 10 7 7 6 7 8 9 10 8 10 11 3 4 3 2 2 6 7 3 3 6 8 8 5 5 4 3 4 2 3 1 3 2 3 4 3 3 9 14 18 19 19 16 13 12 10 7 6 6 5 4 5 5
10 10 6 13 7 6 9 9 7 9 6 3 4 1 4 4 4 4 4 3 4 4 12 11 7 3 3 3 2 3 2 3 2 3 4 1 1 2 6 12 19 23 23 20 16 13 13 10 8 8 9 11 11 11
8 7 4 8 9 6 5 8 7 6 4 3 3 4 6 5 5 4 6 3 3 7 17 9 6 3 3 3 2 2 3 4 4 4 2 3 7 9 8 9 11 19 25 22 16 12 11 9 7 2 5 7 10 11
5 2 2 3 12 7 6 4 6 7 3 4 5 4 4 2 4 5 7 8 9 10 12 5 4 3 3 2 4 6 3 5 3 3 6 11 5 10 17 13 12 14 18 16 13 12 10 4 1 3 6 10 12 13
4 3 3 1 7 9 9 7 1 3 4 4 5 9 7 4 4 3 4 4 10 17 4 4 6 4 5 3 3 4 5 3 3 5 9 8 7 20 11 13 13 20 20 16 10 7 3 2 3 8 10 12 13 12
8 7 3 2 3 7 11 10 6 5 5 7 5 5 10 9 7 6 4 6 12 8 7 3 6 5 5 5 4 5 9 8 6 6 18 15 15 6 4 16 19 16 12 11 12 9 6 1 3 2 2 3 4 3
8 7 10 3 2 3 3 6 6 4 11 6 10 13 12 11 14 15 12 10 10 7 3 5 4 4 5 7 10 10 14 14 11 11 13 15 11 7 20 18 8 9 16 17 12 10 6 4 6 7 6 6 6 5
8 8 6 6 5 3 3 4 6 5 4 3 8 9 9 8 11 11 13 16 17 7 6 4 5 7 9 12 12 13 11 11 11 9 10 10 12 14 20 14 19 16 18 16 14 12 7 6 5 4 6 7 5 5
5 4 6 6 4 7 4 4 5 5 4 4 5 5 5 9 12 14 12 12 11 6 6 11 14 15 14 8 7 9 11 11 11 10 8 10 14 26 19 19 14 16 19 18 15 12 9 6 6 6 6 5 7 9
7 4 3 4 4 4 5 6 4 3 4 5 4 5 5 4 5 6 8 9 6 11 11 12 11 8 7 7 9 9 9 7 8 10 9 9 23 24 21 17 17 20 20 18 15 13 11 9 9 8 7 5 6 5
6 3 3 4 3 3 4 4 4 4 3 2 2 3 4 3 3 8 4 4 6 9 10 9 8 7 6 6 8 9 9 9 10 10 10 14 16 18 18 14 16 19 19 17 15 14 13 12 10 11 9 7 5 5
6 2 3 2 5 3 2 3 4 3 3 3 3 3 2 1 6 4 1 1 3 4 6 7 8 8 6 6 8 10 9 8 9 10 14 19 16 13 18 17 16 16 16 13 12 13 16 15 11 11 9 9 6 6
2 4 2 4 4 3 4 3 4 3 3 4 3 3 1 2 1 2 1 1 5 4 4 5 7 7 6 11 14 11 13 13 14 15 14 13 12 13 14 15 15 14 15 14 14 13 16 17 15 12 9 8 4 4
4 4 7 3 3 4 2 3 1 2 2 2 2 1 1 3 4 2 1 4 5 2 3 2 3 5 8 14 18 15 15 14 10 8 8 10 14 14 11 13 15 14 14 14 13 13 13 16 16 13 11 9 6 6
2 4 6 5 3 3 4 3 4 3 3 2 2 3 1 1 2 2 4 4 6 3 2 2 1 4 9 17 17 13 11 10 8 6 5 5 5 7 13 13 12 11 11 13 12 13 12 13 13 12 10 9 8 7
4 3 4 2 5 5 2 0 3 2 2 2 4 2 2 1 1 4 6 8 7 6 7 6 2 7 17 18 17 11 9 7 8 8 8 4 4 7 10 11 10 7 6 8 13 15 12 11 11 12 11 10 10 9
4 4 4 4 5 4 5 5 3 1 1 3 2 1 2 1 3 8 11 10 9 8 9 10 14 18 17 16 13 9 8 11 12 9 6 6 6 7 6 4 8 10 10 11 15 15 12 11 10 11 11 10 8 8
5 10 4 3 3 4 3 5 1 10 7 2 1 1 2 4 4 8 10 10 9 7 8 10 11 11 11 11 11 10 10 7 5 5 5 4 5 6 4 1 2 6 10 13 19 19 16 13 11 11 11 11 11 11
3 6 4 5 4 6 10 9 10 8 2 2 4 3 2 3 3 5 9 9 8 6 4 5 7 8 8 7 8 7 7 7 6 3 2 1 3 8 5 0 3 6 9 12 17 17 15 15 14 13 12 12 10 9
7 9 5 4 3 5 7 4 4 3 1 2 3 3 2 2 2 2 4 7 5 4 2 2 5 8 7 6 7 7 6 5 4 4 5 4 3 9 9 3 2 7 9 11 12 12 12 11 11 9 7 7 7 6
7 7 8 4 3 2 4 4 2 1 1 1 1 3 3 3 1 3 4 2 4 5 4 3 3 4 3 6 9 13 15 10 6 4 5 6 5 9 9 8 7 8 8 10 10 10 10 11 10 8 7 4 6 8
Wind_Direction
313 315 316 316 317 316 316 313 303 305 255 232 212 204 191 206 169 53 56 97 112 107 84 91 84 93 88 64 34 32 225 65 68 95 220 154 235 136 250 240 233 215 166 152 138 211 248 5 308 284 2 310 289 220
314 314 315 315 315 314 312 307 288 293 238 215 200 194 186 186 166 130 117 117 127 101 115 99 86 72 59 52 33 332 82 142 155 107 164 137 182 179 230 215 211 225 299 168 228 93 342 320 300 328 328 295 234 185
311 314 316 319 319 316 308 293 270 268 229 205 192 189 182 174 169 151 145 137 125 112 107 106 87 68 42 43 356 272 221 177 158 143 142 124 215 171 212 212 220 185 208 220 204 165 270 314 351 22 10 320 195 187
313 316 319 319 318 311 300 281 247 242 210 194 186 179 183 173 170 165 166 160 156 126 122 125 100 56 39 38 1 8 245 179 147 127 101 132 202 204 214 30 238 182 172 168 246 243 280 288 14 22 41 63 112 143
317 321 320 318 316 313 301 267 219 221 198 188 178 178 180 174 169 145 158 182 175 153 132 137 127 92 65 41 14 46 151 165 150 132 128 116 110 193 170 252 236 190 170 187 200 140 131 128 251 65 58 64 94 137
322 321 321 318 312 304 281 247 238 211 185 177 173 176 174 172 166 148 146 183 185 149 120 160 174 160 116 64 52 62 95 118 118 103 107 116 148 259 253 246 213 193 190 184 178 162 136 121 150 168 120 111 114 126
323 323 324 327 330 320 265 220 203 190 171 169 169 172 168 167 170 159 172 190 174 171 155 120 183 202 211 268 33 52 51 71 82 99 90 129 154 254 238 237 178 190 190 178 156 144 143 143 126 149 209 221 216 190
325 329 332 357 352 356 165 164 171 164 160 159 161 165 163 165 169 177 178 181 174 169 174 146 147 195 200 212 165 72 82 81 52 102 115 158 159 314 251 230 190 178 171 169 165 165 138 148 141 131 122 189 232 237
327 341 45 6 15 55 105 153 146 149 151 149 148 145 142 164 162 188 211 177 179 193 178 169 181 205 176 170 131 86 100 99 62 149 132 198 172 231 237 217 200 190 182 180 171 165 164 178 237 262 245 243 248 258
325 342 24 15 66 77 104 130 143 147 145 144 141 149 165 169 150 135 139 180 204 221 207 190 170 151 165 164 122 146 45 94 223 110 144 236 258 256 256 243 213 197 180 167 165 183 209 213 205 207 212 239 228 224
315 293 273 189 115 108 126 140 146 147 146 148 155 154 149 147 140 138 156 194 210 228 205 183 189 148 183 184 161 190 150 148 245 121 267 255 265 243 208 207 202 187 190 173 151 127 120 139 152 146 161 247 262 272
315 298 246 198 148 144 149 148 154 155 165 163 148 134 142 175 131 148 170 191 222 232 183 166 169 152 154 160 146 159 143 192 252 145 238 253 250 234 192 185 183 181 179 182 188 187 161 156 162 169 143 195 265 285
330 305 259 182 170 162 162 154 168 168 152 146 163 173 184 173 112 190 180 192 215 187 173 159 142 153 133 143 92 174 195 222 140 222 242 241 304 257 214 196 191 189 192 196 204 209 209 203 209 223 239 262 273 288
329 326 260 191 157 167 179 171 163 173 176 193 184 233 214 189 230 198 190 178 198 177 161 150 123 135 133 141 139 206 110 181 236 232 236 245 350 8 243 226 215 210 208 210 218 225 223 223 232 244 257 248 253 262
317 333 274 189 169 166 189 197 194 184 200 215 195 222 220 224 234 227 222 226 187 160 154 129 104 138 130 135 194 141 185 235 229 234 224 183 97 58 5 262 232 228 221 216 217 217 204 215 198 215 270 263 267 272
311 333 24 183 181 170 170 169 200 200 224 228 230 240 215 221 233 211 215 231 223 175 153 140 135 171 178 170 182 208 208 227 236 219 204 169 95 20 329 277 288 232 197 182 168 166 156 159 217 281 288 284 283 280
251 202 276 15 188 213 238 232 208 229 239 235 240 230 226 271 253 195 213 229 177 162 178 153 183 179 120 197 218 195 217 217 237 223 201 213 295 330 287 271 198 170 155 145 143 156 160 176 292 302 294 289 287 288
225 213 168 354 202 194 201 194 206 219 255 244 239 242 229 232 238 245 209 199 164 193 169 208 131 194 206 197 208 217 213 207 193 291 270 251 282 272 240 168 148 142 150 154 166 161 157 174 316 343 22 346 317 326
217 196 173 227 250 203 205 210 214 251 233 247 253 262 257 260 260 258 250 235 220 216 192 186 226 215 222 225 242 243 220 218 232 276 241 251 251 221 172 164 169 171 162 168 159 156 149 96 109 102 78 78 78 64
205 197 204 234 222 229 245 221 208 253 259 244 240 246 243 239 260 256 246 237 229 199 200 217 226 225 224 247 261 250 226 229 251 249 247 244 214 186 170 160 164 174 173 173 170 165 147 126 144 127 98 86 79 71
198 233 245 229 222 227 261 228 234 241 273 255 266 235 252 249 249 242 230 215 189 208 219 227 243 256 258 235 193 239 252 241 237 246 244 217 187 177 177 181 184 179 183 187 186 181 174 167 168 162 142 122 103 86
194 214 203 210 223 235 254 231 242 279 259 262 269 241 247 237 225 212 193 184 215 227 225 238 249 231 204 245 256 239 238 230 210 191 209 208 177 182 183 187 195 188 194 198 199 201 199 192 186 182 178 165 163 160
182 187 223 226 212 243 268 224 242 222 247 246 247 241 219 222 216 166 198 214 219 216 215 213 201 210 222 240 239 232 205 183 188 193 184 171 168 175 182 188 182 191 198 206 211 212 209 205 197 197 199 203 207 198
171 215 232 225 210 262 248 236 228 251 248 244 232 257 225 206 165 216 218 190 190 172 177 179 179 171 165 164 156 149 160 161 163 159 162 168 183 193 195 202 202 203 205 211 221 227 216 209 201 198 209 212 218 236
183 220 213 246 220 243 230 222 213 230 236 214 245 250 137 139 150 229 223 160 152 161 190 203 196 186 172 164 156 148 148 154 153 150 158 167 175 180 191 205 210 211 210 216 225 227 220 211 204 198 199 202 225 239
215 213 193 215 208 221 261 290 332 325 292 275 248 312 239 226 191 126 119 162 172 166 154 175 207 209 191 183 171 155 161 159 157 164 186 207 218 214 210 202 195 198 207 217 226 226 221 214 207 204 210 221 231 228
216 247 222 228 247 273 267 272 276 242 267 240 265 182 213 281 56 95 119 140 140 128 61 354 254 200 193 174 166 161 165 176 194 195 180 179 169 177 197 198 197 205 224 232 228 202 196 206 205 207 208 217 221 228
244 259 225 200 216 232 268 1 270 243 310 340 303 11 291 153 108 141 138 134 111 76 35 19 104 161 157 159 159 153 165 188 210 212 197 204 210 221 216 207 213 232 216 204 192 178 177 191 201 203 205 216 219 228
235 229 213 234 224 231 224 224 249 222 176 220 245 151 321 178 139 139 142 125 110 84 66 85 104 129 139 149 152 150 138 128 128 128 133 123 120 107 99 170 211 210 196 193 184 177 168 174 181 190 194 203 215 231
231 206 217 223 214 229 247 221 328 347 334 335 74 37 76 109 138 157 150 146 130 108 89 102 120 131 136 147 158 157 157 148 129 109 122 136 159 164 148 64 283 229 195 187 186 184 183 186 191 203 216 232 240 247
216 188 211 228 243 239 248 273 294 314 292 49 87 88 102 117 125 162 178 171 152 131 146 164 168 163 161 155 158 160 163 158 160 175 216 281 238 205 193 13 336 183 175 180 186 192 200 209 216 229 245 255 258 256
203 203 205 214 240 255 245 229 217 211 192 161 163 156 149 141 115 119 134 180 196 212 223 234 203 208 204 200 204 202 201 208 230 270 252 291 295 187 179 182 126 152 161 174 185 197 208 214 220 227 220 225 247 245
197 205 219 273 264 216 184 166 155 151 148 141 156 197 186 167 304 177 172 204 239 227 219 253 197 186 240 274 256 231 226 234 252 252 189 199 190 181 186 190 162 151 157 164 169 172 176 184 195 203 209 228 254 247